Flag for U.S.A. Weather past 2 weeks in Chattanooga, Tennessee, U.S.A.

Now
39 °F

Clear.


Feels Like: 35 °F
Forecast: 27 / 58 °F
Wind: 6 mph from North

Location: Lovell Field

Current Time: Mar 29, 2015 at 1:05:04 AM

Latest Report: Mar 28, 2015 at 11:53 PM


Visibility: 10 mi

Pressure: 30.32 "Hg

Humidity: 36%

Dew point: 14 °F

Location of ChattanoogaLocation

Historic Weather in Chattanooga — Graph

°F

Chattanooga temperature yesterday

Maximum temperature yesterday: 52 °F (at 4:53 PM)
Minimum temperature yesterday: 32 °F (at 7:53 AM)
Average temperature yesterday: 41 °F

Past Weeks' High & Low Weather Summary

 TemperatureHumidityPressure
High81 °F (Mar 17, 3:53 PM)97% (Mar 14, 7:53 AM)30.32 "Hg (Mar 14, 7:53 AM)
Low32 °F (Mar 28, 7:53 AM)16% (Mar 16, 6:53 PM)29.72 "Hg (Mar 26, 5:53 PM)
Average57 °F65%30.07 "Hg
* Reported Midnight between Mar 13 and Mar 14 — Mar 28 11:53 PM, Chattanooga, Weather by CustomWeather, © 2015

Note: Actual official high and low records may vary slightly from our data, if they occured in-between our weather recording intervals... More about our weather records

Advertising

Chattanooga weather history for previous 24 hours

 ConditionsComfort  
Time TempWeatherWind HumidityBarometerVisibility
11:53 PM
Sat, Mar 28
39 °FClear.6 mph36%30.32 "Hg10 mi
10:53 PM39 °FClear.5 mph38%30.30 "Hg10 mi
9:53 PM40 °FPassing clouds.7 mph33%30.28 "Hg10 mi
8:53 PM44 °FPassing clouds.9 mph25%30.25 "Hg10 mi
7:53 PM46 °FPassing clouds.13 mph19%30.23 "Hg10 mi
6:53 PM49 °FScattered clouds.12 mph16%30.21 "Hg10 mi
5:53 PM51 °FScattered clouds.7 mph17%30.19 "Hg10 mi
4:53 PM52 °FScattered clouds.16 mph19%30.17 "Hg10 mi
3:53 PM51 °FScattered clouds.14 mph20%30.18 "Hg10 mi
2:53 PM50 °FPassing clouds.8 mph22%30.19 "Hg10 mi
1:53 PM49 °FPassing clouds.8 mph26%30.20 "Hg10 mi
12:53 PM45 °FPassing clouds.8 mph31%30.22 "Hg10 mi
11:53 AM41 °FScattered clouds.8 mph36%30.22 "Hg10 mi
10:53 AM39 °FScattered clouds.8 mph41%30.22 "Hg10 mi
9:53 AM37 °FScattered clouds.9 mph44%30.21 "Hg10 mi
8:53 AM34 °FScattered clouds.13 mph50%30.19 "Hg10 mi
7:53 AM32 °FPassing clouds.9 mph56%30.18 "Hg10 mi
6:53 AM33 °FPassing clouds.12 mph52%30.14 "Hg10 mi
5:53 AM34 °FPassing clouds.9 mph48%30.12 "Hg10 mi
4:53 AM35 °FClear.15 mph52%30.10 "Hg10 mi
3:53 AM37 °FPassing clouds.10 mph57%30.08 "Hg10 mi
2:53 AM37 °FPassing clouds.10 mph62%30.09 "Hg10 mi
1:53 AM39 °FPassing clouds.13 mph62%30.08 "Hg10 mi
Weather by CustomWeather, © 2015

See weather overviewHow to use our weather pages